Location: Zagreb
(45.8000°N, 16.0000°E)
Time: 01:29:52
(UTC+01:00)

NO-84 - Pass Details

Date: 09 November 2020
Orbit: 323 x 458 km, 55.0° (Epoch: 25 November)

Event Time Altitude Azimuth Distance (km) Brightness Sun altitude
Exits shadow 04:31:21 34° 76° (ENE) 667 ? -23.9°
Drops below altitude 10° 04:33:26 10° 104° (ESE) 1,390 ? -23.6°
Sets 04:35:27 0° 111° (ESE) 2,211 ? -23.2°
